TimeEDT,TemperatureF,Dew PointF,Humidity,Sea Level PressureIn,VisibilityMPH,Wind Direction,Wind SpeedMPH,Gust SpeedMPH,PrecipitationIn,Events,Conditions,WindDirDegrees,DateUTC
12:15 AM,71.4,67.5,87,29.99,10.0,South,5.8,-,N/A,,Clear,190,2013-05-21 04:15:00
12:35 AM,71.2,67.5,88,29.99,10.0,South,5.8,-,N/A,,Clear,180,2013-05-21 04:35:00
12:55 AM,70.7,67.3,89,30.00,10.0,South,4.6,-,N/A,,Clear,190,2013-05-21 04:55:00
1:35 AM,69.1,66.7,92,29.99,10.0,SW,4.6,-,N/A,,Clear,220,2013-05-21 05:35:00
1:55 AM,69.4,66.7,91,29.99,10.0,Calm,Calm,-,N/A,,Clear,0,2013-05-21 05:55:00
2:15 AM,69.1,66.7,92,29.99,10.0,Calm,Calm,-,N/A,,Clear,0,2013-05-21 06:15:00
2:35 AM,68.9,66.6,92,29.99,10.0,Calm,Calm,-,N/A,,Clear,0,2013-05-21 06:35:00
2:55 AM,68.2,66.2,93,29.99,10.0,Calm,Calm,-,N/A,,Clear,0,2013-05-21 06:55:00
3:15 AM,68.4,66.4,93,29.99,10.0,South,3.5,-,N/A,,Clear,190,2013-05-21 07:15:00
3:35 AM,68.0,66.0,93,30.00,10.0,Calm,Calm,-,N/A,,Clear,0,2013-05-21 07:35:00
3:55 AM,67.6,65.8,94,29.99,10.0,South,3.5,-,N/A,,Clear,170,2013-05-21 07:55:00
4:15 AM,67.5,65.3,93,29.99,10.0,Calm,Calm,-,N/A,,Clear,0,2013-05-21 08:15:00
4:35 AM,67.3,65.1,93,29.99,10.0,SSW,3.5,-,N/A,,Clear,200,2013-05-21 08:35:00
4:55 AM,67.1,65.5,95,29.99,10.0,Calm,Calm,-,N/A,,Clear,0,2013-05-21 08:55:00
5:15 AM,66.6,64.6,93,29.99,10.0,Calm,Calm,-,N/A,,Clear,0,2013-05-21 09:15:00
5:35 AM,66.2,64.4,94,29.99,10.0,Calm,Calm,-,N/A,,Clear,0,2013-05-21 09:35:00
5:55 AM,65.8,63.9,93,30.00,10.0,Calm,Calm,-,N/A,,Clear,0,2013-05-21 09:55:00
6:15 AM,67.3,64.0,89,30.00,10.0,South,3.5,-,N/A,,Clear,180,2013-05-21 10:15:00
6:35 AM,67.3,64.0,89,30.01,10.0,Calm,Calm,-,N/A,,Clear,0,2013-05-21 10:35:00
6:55 AM,66.9,64.0,90,30.02,10.0,Calm,Calm,-,N/A,,Clear,0,2013-05-21 10:55:00
7:15 AM,67.1,64.4,91,30.02,7.0,Calm,Calm,-,N/A,,Clear,0,2013-05-21 11:15:00
7:35 AM,68.2,64.8,89,30.02,10.0,South,3.5,-,N/A,,Clear,180,2013-05-21 11:35:00
7:55 AM,70.0,65.1,85,30.02,3.0,South,4.6,-,N/A,,Haze,180,2013-05-21 11:55:00
8:15 AM,71.1,65.7,83,30.03,7.0,SSW,5.8,-,N/A,,Scattered Clouds,200,2013-05-21 12:15:00
8:35 AM,71.2,65.7,82,30.04,10.0,SSW,3.5,-,N/A,,Clear,200,2013-05-21 12:35:00
8:55 AM,71.6,65.7,81,30.05,10.0,SSW,3.5,-,N/A,,Mostly Cloudy,200,2013-05-21 12:55:00
9:15 AM,72.5,66.0,80,30.04,10.0,South,6.9,-,N/A,,Scattered Clouds,180,2013-05-21 13:15:00
9:35 AM,74.1,66.4,77,30.04,10.0,SSW,4.6,-,N/A,,Clear,210,2013-05-21 13:35:00
9:55 AM,74.7,66.2,75,30.04,10.0,SW,5.8,-,N/A,,Clear,220,2013-05-21 13:55:00
10:15 AM,75.6,67.1,75,30.04,10.0,SSW,4.6,-,N/A,,Clear,210,2013-05-21 14:15:00
10:35 AM,77.2,67.6,72,30.04,10.0,WSW,4.6,-,N/A,,Scattered Clouds,250,2013-05-21 14:35:00
10:55 AM,76.6,67.3,73,30.04,10.0,West,4.6,-,N/A,,Mostly Cloudy,260,2013-05-21 14:55:00
11:15 AM,78.6,67.8,69,30.04,10.0,SW,3.5,-,N/A,,Scattered Clouds,230,2013-05-21 15:15:00
11:35 AM,79.3,68.4,69,30.03,10.0,West,9.2,-,N/A,,Scattered Clouds,260,2013-05-21 15:35:00
11:55 AM,79.0,68.2,69,30.03,10.0,West,5.8,-,N/A,,Mostly Cloudy,260,2013-05-21 15:55:00
12:15 PM,80.6,68.9,67,30.02,10.0,West,6.9,-,N/A,,Mostly Cloudy,260,2013-05-21 16:15:00
12:35 PM,80.1,68.9,69,30.02,10.0,WSW,4.6,-,N/A,,Mostly Cloudy,250,2013-05-21 16:35:00
12:55 PM,80.4,68.4,67,30.01,10.0,Calm,Calm,-,N/A,,Mostly Cloudy,0,2013-05-21 16:55:00
1:15 PM,82.2,68.7,64,29.99,10.0,SSW,4.6,-,N/A,,Mostly Cloudy,200,2013-05-21 17:15:00
1:35 PM,82.6,68.7,63,29.98,10.0,SSE,6.9,-,N/A,,Scattered Clouds,160,2013-05-21 17:35:00
1:55 PM,84.0,69.1,61,29.98,10.0,SSW,4.6,-,N/A,,Scattered Clouds,200,2013-05-21 17:55:00
2:15 PM,84.6,68.5,58,29.97,10.0,SSW,4.6,-,N/A,,Mostly Cloudy,210,2013-05-21 18:15:00
2:35 PM,84.6,68.0,57,29.97,10.0,WSW,5.8,-,N/A,,Mostly Cloudy,240,2013-05-21 18:35:00
2:55 PM,83.7,68.0,59,29.97,10.0,South,5.8,-,N/A,,Mostly Cloudy,170,2013-05-21 18:55:00
3:15 PM,85.6,67.5,54,29.94,10.0,South,6.9,-,N/A,,Mostly Cloudy,180,2013-05-21 19:15:00
3:35 PM,86.2,67.5,53,29.94,10.0,SSE,5.8,-,N/A,,Scattered Clouds,160,2013-05-21 19:35:00
3:55 PM,86.7,68.5,55,29.93,10.0,SW,8.1,-,N/A,,Scattered Clouds,220,2013-05-21 19:55:00
4:15 PM,86.4,66.4,51,29.93,10.0,SSW,6.9,-,N/A,,Scattered Clouds,210,2013-05-21 20:15:00
4:35 PM,85.8,67.5,54,29.92,10.0,SW,5.8,-,N/A,,Clear,220,2013-05-21 20:35:00
4:55 PM,85.6,66.9,53,29.92,10.0,SSE,5.8,-,N/A,,Mostly Cloudy,150,2013-05-21 20:55:00
5:15 PM,85.3,66.6,53,29.92,10.0,SW,4.6,-,N/A,,Mostly Cloudy,220,2013-05-21 21:15:00
5:35 PM,85.1,66.4,53,29.91,10.0,SW,3.5,-,N/A,,Clear,230,2013-05-21 21:35:00
5:55 PM,83.8,68.2,59,29.91,10.0,Calm,Calm,-,N/A,,Scattered Clouds,0,2013-05-21 21:55:00
6:15 PM,83.7,68.2,59,29.90,10.0,Calm,Calm,-,N/A,,Scattered Clouds,0,2013-05-21 22:15:00
6:35 PM,83.7,68.2,59,29.91,10.0,Calm,Calm,-,N/A,,Clear,0,2013-05-21 22:35:00
6:55 PM,82.0,69.4,65,29.91,10.0,WSW,8.1,-,N/A,,Scattered Clouds,250,2013-05-21 22:55:00
7:15 PM,68.4,63.5,84,29.98,4.0,West,19.6,41.4,N/A,Rain,Heavy Rain,260,2013-05-21 23:15:00
7:35 PM,65.5,63.5,93,29.97,5.0,West,10.4,21.9,N/A,Rain,Rain,280,2013-05-21 23:35:00
7:55 PM,65.7,63.5,93,29.98,10.0,WSW,5.8,-,N/A,Rain,Light Rain,240,2013-05-21 23:55:00
8:15 PM,66.0,63.7,92,29.98,10.0,South,4.6,-,N/A,Rain,Light Rain,180,2013-05-22 00:15:00
8:35 PM,65.7,63.5,93,29.97,10.0,SE,5.8,-,N/A,Rain,Light Rain,130,2013-05-22 00:35:00
8:55 PM,65.3,63.5,94,29.95,10.0,SE,6.9,-,N/A,,Scattered Clouds,140,2013-05-22 00:55:00
9:15 PM,64.9,63.1,94,29.94,10.0,SE,4.6,-,N/A,Rain,Light Rain,130,2013-05-22 01:15:00
9:35 PM,64.6,63.0,94,29.94,10.0,SE,4.6,-,N/A,,Overcast,140,2013-05-22 01:35:00
9:55 PM,64.9,62.6,92,29.95,10.0,Calm,Calm,-,N/A,,Overcast,0,2013-05-22 01:55:00
10:15 PM,65.3,62.8,92,29.96,10.0,South,6.9,-,N/A,,Mostly Cloudy,190,2013-05-22 02:15:00
10:35 PM,64.8,62.6,93,29.95,10.0,SSE,6.9,-,N/A,,Mostly Cloudy,160,2013-05-22 02:35:00
10:55 PM,65.5,62.8,91,29.97,10.0,South,8.1,-,N/A,,Scattered Clouds,190,2013-05-22 02:55:00
11:15 PM,65.3,62.1,89,29.97,10.0,SSE,4.6,-,N/A,,Clear,160,2013-05-22 03:15:00
11:35 PM,65.3,62.1,89,29.97,10.0,SSE,4.6,-,N/A,,Clear,160,2013-05-22 03:35:00
11:55 PM,64.8,61.9,90,29.97,10.0,SSE,3.5,-,N/A,,Clear,150,2013-05-22 03:55:00